Regional Weather Roundup
Issued by NWS Columbia, SC

Current Version | Previous Version | Graphics & Text | Print | Product List | Glossary On
Versions: 1 2 3 4 5 6 7 8 9 10 11 12 13 14 15 16 17 18 19 20 21 22 23 24 25 26 27 28 29 30 31 32 33 34 35 36 37 38 39 40 41 42 43 44 45 46 47 48 49 50
000
ASUS42 KCAE 062310
RWRCAE
REGIONAL WEATHER ROUNDUP
NATIONAL WEATHER SERVICE COLUMBIA SC
600 PM EST SAT MAR 06 2021

NOTE: "FAIR" INDICATES FEW OR NO CLOUDS BELOW 12,000 FEET WITH NO
SIGNIFICANT WEATHER AND/OR OBSTRUCTIONS TO VISIBILITY.

NOT ALL STATIONS ARE QUALITY CONTROLLED BY THE NATIONAL
WEATHER SERVICE. USE DATA WITH CAUTION...ESPECIALLY
DEWPOINT OBSERVATIONS.

SCZ001>056-GAZ040-063>065-077-070000-
...UPSTATE SOUTH CAROLINA...

CITY           SKY/WX    TMP DP  RH WIND       PRES   REMARKS
ANDERSON       CLEAR     51  28  41 SW6       30.14R
LIBERTY        CLEAR     51  27  38 SW7       30.12S
SPARTANBURG    CLEAR     52  18  25 CALM      30.12R
CLEMSON        CLEAR     50  31  48 CALM      30.14S
GREENVILLE     CLEAR     54  19  25 SW5       30.13R
GREENWOOD      CLEAR     50  29  44 CALM      30.15S
GREER          CLEAR     52  17  25 S6        30.13R
ROCK HILL      CLEAR     53  18  25 CALM      30.13R
CHESTER        CLEAR     50  19  29 CALM      30.14S
LAURENS        CLEAR     52  21  30 CALM      30.14R


...CENTRAL SOUTH CAROLINA...

CITY           SKY/WX    TMP DP  RH WIND       PRES   REMARKS
COLUMBIA APT   CLEAR     53  19  26 W5        30.14R
COLUMBIA OWENS CLEAR     54  17  23 CALM      30.15R
MCENTIRE ANGB  CLEAR     52  18  26 CALM      30.13R
ORANGEBURG     CLEAR     50  29  44 CALM      30.15R
SUMTER SHAW    CLEAR     52  15  22 NW3       30.14R
AIKEN          FAIR      49  29  45 S5        30.16R
BARNWELL       CLOUDY    50  28  43 CALM      30.16R
MANNING        FAIR      48  30  49 CALM      30.15R
CAMDEN         FAIR      54  19  26 CALM      30.14R
LANCASTER      CLEAR     52  19  28 CALM      30.13S
WINNSBORO      CLEAR     52  23  32 CALM      30.13S


...EASTERN AND COASTAL SOUTH CAROLINA...

CITY           SKY/WX    TMP DP  RH WIND       PRES   REMARKS
MYRTLE BEACH   PTCLDY    51  20  29 N6        30.15R
N MYRTLE BCH   PTCLDY    51  19  28 N5        30.14R
CONWAY         FAIR      46  30  53 CALM      30.15R
MARION         FAIR      50  19  29 CALM      30.14S
HARTSVILLE     FAIR      50  18  27 CALM      30.14R
FLORENCE       CLEAR     53  15  22 N5        30.14S
DARLINGTON     CLEAR     52  23  32 N7        30.14R
CHARLESTON APT MOCLDY    50  25  37 N8        30.14R
MOUNT PLEASANT FAIR      50  27  40 CALM      30.13S
WALTERBORO     CLOUDY    50  32  50 N3        30.16R
BEAUFORT       MOCLDY    52  33  48 N7        30.14S
HILTON HEAD    CLOUDY    52  32  46 NE6       30.14S


...EASTERN GEORGIA...

CITY           SKY/WX    TMP DP  RH WIND       PRES   REMARKS
AUGUSTA BUSH F CLOUDY    51  31  46 NW5       30.16R
AUGUSTA DANIEL PTCLDY    49  31  49 CALM      30.16R
THOMSON        CLEAR     46  35  65 E3        30.16R
WASHINGTON       N/A     48  36  61 CALM      30.15S
CLAXTON        CLOUDY    54  35  49 CALM      30.15R
SYLVANIA       PTCLDY    53  32  45 CALM      30.16R
STATESBORO     CLOUDY    51  33  49 CALM      30.15R
SAVANNAH       CLOUDY    52  34  50 NE6       30.15R


...SOUTHERN NORTH CAROLINA...

CITY           SKY/WX    TMP DP  RH WIND       PRES   REMARKS
CHARLOTTE      PTCLDY    54  15  21 CALM      30.12S
MONROE         CLEAR     53  16  23 CALM      30.12S
WADESBORO      CLEAR     52  13  20 NW3       30.14R
ROCKINGHAM     CLEAR     52  18  25 CALM      30.14R
RUTHERFORDTON  CLEAR     54  10  17 N10       30.12R
ASHEVILLE      CLEAR     47  15  27 N12G24    30.12R

$$



USA.gov is the U.S. government's official web portal to all federal, state and local government web resources and services.